SITRO-AIS 10 (BURDAEV)

Last updated on Wed Oct 29 2025 00:03:53 GMT+0000 (Coordinated Universal Time)

1 57199U 23091AK 25301.66146979 .00020851 00000+0 74817-3 0 9990 2 57199 97.5417 2.9241 0008766 168.6008 191.5432 15.28687705129275
UTC large
Height (km)
Speed (km/s)
/
Latitude / Longitude
Inclination (degrees)
Orbital Period (minutes)
Azimuth
Elevation
Range (km)
Doppler Factor

Next 0 passes for location: London (51.5072 / 0.1276)

Sorry there are no passes over London.